RYR90SG ESSA-EPGD

Flight info

Callsign RYR90SG
Flight time 1h 5m
Altitude 37000
Route BABAP T316 NEPVA DCT PENOR DCT MOTAD N133 DOMAG T240 OGDAV
Aircraft B738/M-SDE2E3FGHIRWXY/LB1

Departure

Time 2026-05-04 16:51
Airport Stockholm-Arlanda Airport (ESSA)

Arrival

Time 2026-05-04 17:56
Airport Gdańsk Lech Wałęsa Airport (EPGD)
Time Latitude Longitude Altitude Speed Heading
2026-05-04 16:12 59.64741 17.92520 111 ft 0 kts 36°
2026-05-04 16:43 59.64720 17.92494 110 ft 4 kts 19°
2026-05-04 16:43 59.64692 17.92503 109 ft 1 kts 286°
2026-05-04 16:46 59.64705 17.92413 111 ft 10 kts 286°
2026-05-04 16:47 59.64767 17.92090 107 ft 13 kts 325°
2026-05-04 16:47 59.64957 17.92128 105 ft 16 kts 11°
2026-05-04 16:48 59.65405 17.92290 103 ft 25 kts 10°
2026-05-04 16:48 59.65571 17.92350 104 ft 24 kts 10°
2026-05-04 16:49 59.65831 17.92445 105 ft 22 kts 10°
2026-05-04 16:49 59.66152 17.92562 111 ft 23 kts 10°
2026-05-04 16:50 59.66441 17.92654 118 ft 17 kts 355°
2026-05-04 16:50 59.66616 17.92474 122 ft 13 kts 280°
2026-05-04 16:51 59.66254 17.92233 117 ft 85 kts 190°
2026-05-04 16:51 59.65458 17.91947 107 ft 145 kts 191°
2026-05-04 16:51 59.63231 17.91005 1404 ft 167 kts 195°
2026-05-04 16:52 59.60670 17.90357 2297 ft 210 kts 188°
2026-05-04 16:52 59.59198 17.90241 2925 ft 213 kts 189°
2026-05-04 16:53 59.56274 17.91231 4237 ft 233 kts 149°
2026-05-04 16:53 59.52709 17.98907 5831 ft 283 kts 134°
2026-05-04 16:54 59.51442 18.01948 6530 ft 290 kts 133°
2026-05-04 16:55 59.45750 18.13658 9530 ft 293 kts 172°
2026-05-04 16:55 59.41747 18.13342 10370 ft 307 kts 196°
2026-05-04 16:56 59.37276 18.11964 11221 ft 335 kts 195°
2026-05-04 16:56 59.30336 18.09919 13604 ft 341 kts 195°
2026-05-04 16:57 59.27950 18.09233 14278 ft 344 kts 195°
2026-05-04 16:57 59.23199 18.07880 15597 ft 350 kts 195°
2026-05-04 16:58 59.15857 18.05805 17490 ft 361 kts 195°
2026-05-04 16:58 59.13329 18.05095 18121 ft 364 kts 195°
2026-05-04 16:59 59.08301 18.03687 19228 ft 370 kts 195°
2026-05-04 17:00 58.97932 18.00796 21383 ft 382 kts 195°
2026-05-04 17:00 58.89941 17.98577 22844 ft 392 kts 195°
2026-05-04 17:01 58.84479 17.97066 23663 ft 400 kts 195°
2026-05-04 17:01 58.78936 17.95540 24471 ft 404 kts 195°
2026-05-04 17:02 58.73350 17.94011 25264 ft 409 kts 195°
2026-05-04 17:02 58.67669 17.92453 25949 ft 415 kts 195°
2026-05-04 17:03 58.64799 17.91670 26311 ft 418 kts 195°
2026-05-04 17:03 58.61909 17.90882 26584 ft 422 kts 194°
2026-05-04 17:03 58.56038 17.89283 27160 ft 429 kts 194°
2026-05-04 17:04 58.50092 17.87675 27844 ft 434 kts 194°
2026-05-04 17:04 58.44072 17.86050 28441 ft 440 kts 194°
2026-05-04 17:05 58.37978 17.84411 29031 ft 445 kts 194°
2026-05-04 17:05 58.31820 17.82761 29591 ft 449 kts 194°
2026-05-04 17:06 58.25654 17.81120 30367 ft 446 kts 194°
2026-05-04 17:06 58.22585 17.80305 30749 ft 444 kts 194°
2026-05-04 17:07 58.16465 17.78680 31391 ft 444 kts 194°
2026-05-04 17:07 58.14441 17.78143 31612 ft 443 kts 194°
2026-05-04 17:07 58.10357 17.77062 32072 ft 442 kts 194°
2026-05-04 17:07 58.07315 17.76259 32370 ft 441 kts 194°
2026-05-04 17:08 58.04272 17.75456 32698 ft 441 kts 194°
2026-05-04 17:08 57.98216 17.73863 33372 ft 439 kts 194°
2026-05-04 17:08 57.95194 17.73070 33686 ft 438 kts 194°
2026-05-04 17:09 57.92179 17.72280 33953 ft 437 kts 194°
2026-05-04 17:09 57.89165 17.71491 34185 ft 437 kts 194°
2026-05-04 17:09 57.86149 17.70703 34415 ft 437 kts 194°
2026-05-04 17:10 57.80132 17.69136 34903 ft 436 kts 194°
2026-05-04 17:10 57.71161 17.66812 35644 ft 432 kts 194°
2026-05-04 17:11 57.68179 17.66041 35833 ft 433 kts 194°
2026-05-04 17:11 57.65197 17.65270 36062 ft 432 kts 194°
2026-05-04 17:11 57.59250 17.63739 36498 ft 431 kts 193°
2026-05-04 17:12 57.56276 17.62975 36688 ft 431 kts 193°
2026-05-04 17:13 57.41370 17.59168 36763 ft 429 kts 193°
2026-05-04 17:14 57.29600 17.56185 36773 ft 425 kts 193°
2026-05-04 17:15 57.20870 17.53981 36775 ft 424 kts 193°
2026-05-04 17:16 57.09111 17.51029 36793 ft 426 kts 193°
2026-05-04 17:17 56.97332 17.48092 36766 ft 431 kts 193°
2026-05-04 17:18 56.85419 17.45174 36804 ft 433 kts 192°
2026-05-04 17:19 56.73306 17.43820 36804 ft 438 kts 187°
2026-05-04 17:20 56.61129 17.43395 36807 ft 436 kts 187°
2026-05-04 17:20 56.52043 17.43134 36824 ft 434 kts 187°
2026-05-04 17:21 56.41054 17.42842 36805 ft 432 kts 187°
2026-05-04 17:22 56.35055 17.42701 36827 ft 430 kts 187°
2026-05-04 17:23 56.26146 17.42529 36194 ft 419 kts 187°
2026-05-04 17:23 56.23248 17.42507 35942 ft 415 kts 187°
2026-05-04 17:23 56.17513 17.42513 35448 ft 410 kts 187°
2026-05-04 17:24 56.14667 17.42533 35181 ft 408 kts 187°
2026-05-04 17:24 56.06219 17.42687 34467 ft 402 kts 187°
2026-05-04 17:25 56.03427 17.42767 34236 ft 400 kts 187°
2026-05-04 17:25 55.97888 17.42958 33744 ft 396 kts 187°
2026-05-04 17:26 55.92399 17.43183 33215 ft 393 kts 186°
2026-05-04 17:26 55.84261 17.43587 32387 ft 387 kts 187°
2026-05-04 17:27 55.78901 17.43963 31865 ft 383 kts 187°
2026-05-04 17:27 55.73613 17.44392 31352 ft 378 kts 186°
2026-05-04 17:28 55.68384 17.44863 30853 ft 374 kts 186°
2026-05-04 17:29 55.60686 17.45787 29880 ft 373 kts 176°
2026-05-04 17:29 55.53395 17.51608 28187 ft 381 kts 166°
2026-05-04 17:30 55.47028 17.56422 26917 ft 368 kts 169°
2026-05-04 17:31 55.42293 17.59637 26213 ft 362 kts 170°
2026-05-04 17:31 55.34538 17.64738 25083 ft 354 kts 170°
2026-05-04 17:32 55.30691 17.67252 24523 ft 351 kts 170°
2026-05-04 17:33 55.23884 17.71689 23524 ft 345 kts 169°
2026-05-04 17:33 55.21638 17.73149 23143 ft 343 kts 169°
2026-05-04 17:34 55.14989 17.77466 22113 ft 336 kts 169°
2026-05-04 17:34 55.12801 17.78883 21784 ft 334 kts 169°
2026-05-04 17:35 55.06328 17.83065 20816 ft 327 kts 168°
2026-05-04 17:35 55.02077 17.85803 20197 ft 324 kts 168°
2026-05-04 17:35 54.99971 17.87157 19886 ft 322 kts 168°
2026-05-04 17:36 54.97867 17.88508 19561 ft 321 kts 168°
2026-05-04 17:36 54.95777 17.89849 19254 ft 320 kts 168°
2026-05-04 17:36 54.93691 17.91186 18954 ft 318 kts 168°
2026-05-04 17:36 54.91618 17.92513 18661 ft 317 kts 168°
2026-05-04 17:37 54.89550 17.93836 18346 ft 317 kts 168°
2026-05-04 17:37 54.87481 17.95157 17989 ft 317 kts 168°
2026-05-04 17:37 54.85417 17.96475 17651 ft 315 kts 168°
2026-05-04 17:37 54.83365 17.97784 17327 ft 314 kts 167°
2026-05-04 17:38 54.81321 17.99086 17006 ft 312 kts 167°
2026-05-04 17:38 54.79343 18.00691 16685 ft 320 kts 153°
2026-05-04 17:38 54.77563 18.03013 16411 ft 321 kts 148°
2026-05-04 17:38 54.75814 18.05404 16094 ft 319 kts 148°
2026-05-04 17:39 54.72317 18.10087 15495 ft 316 kts 149°
2026-05-04 17:39 54.70567 18.12379 15187 ft 315 kts 149°
2026-05-04 17:39 54.68821 18.14650 14898 ft 314 kts 149°
2026-05-04 17:40 54.67095 18.16961 14610 ft 314 kts 143°
2026-05-04 17:40 54.65571 18.19618 14494 ft 310 kts 137°
2026-05-04 17:40 54.64142 18.22410 14218 ft 310 kts 136°
2026-05-04 17:40 54.62736 18.25208 13951 ft 308 kts 136°
2026-05-04 17:41 54.61328 18.27990 13673 ft 307 kts 136°
2026-05-04 17:41 54.59913 18.30754 13358 ft 307 kts 137°
2026-05-04 17:41 54.58496 18.33493 13028 ft 306 kts 137°
2026-05-04 17:41 54.57076 18.36221 12708 ft 305 kts 137°
2026-05-04 17:42 54.55658 18.38933 12385 ft 304 kts 137°
2026-05-04 17:42 54.54242 18.41632 12062 ft 303 kts 137°
2026-05-04 17:42 54.52829 18.44318 11761 ft 302 kts 137°
2026-05-04 17:42 54.51421 18.46992 11457 ft 301 kts 137°
2026-05-04 17:43 54.50012 18.49663 11132 ft 301 kts 137°
2026-05-04 17:43 54.48608 18.52321 10850 ft 299 kts 137°
2026-05-04 17:43 54.47223 18.54945 10709 ft 292 kts 137°
2026-05-04 17:43 54.45873 18.57498 10573 ft 285 kts 137°
2026-05-04 17:44 54.44554 18.59988 10444 ft 278 kts 138°
2026-05-04 17:44 54.43264 18.62419 10319 ft 272 kts 138°
2026-05-04 17:44 54.42134 18.65001 10072 ft 277 kts 119°
2026-05-04 17:44 54.41409 18.68077 9836 ft 277 kts 115°
2026-05-04 17:45 54.40688 18.71130 9550 ft 276 kts 116°
2026-05-04 17:45 54.39946 18.74163 9279 ft 275 kts 117°
2026-05-04 17:45 54.39198 18.77178 9012 ft 274 kts 117°
2026-05-04 17:45 54.38452 18.80173 8766 ft 272 kts 117°
2026-05-04 17:46 54.37706 18.83155 8518 ft 271 kts 117°
2026-05-04 17:46 54.36963 18.86115 8275 ft 270 kts 117°
2026-05-04 17:46 54.36223 18.89060 8040 ft 268 kts 117°
2026-05-04 17:46 54.35492 18.91969 7784 ft 267 kts 117°
2026-05-04 17:47 54.34755 18.94899 7531 ft 267 kts 117°
2026-05-04 17:47 54.34001 18.97805 7267 ft 265 kts 124°
2026-05-04 17:47 54.32799 19.00040 7019 ft 249 kts 158°
2026-05-04 17:47 54.31236 19.00891 6831 ft 229 kts 182°
2026-05-04 17:48 54.29701 19.00732 6568 ft 215 kts 201°
2026-05-04 17:48 54.28335 18.99858 6340 ft 206 kts 209°
2026-05-04 17:48 54.27079 18.98808 6083 ft 195 kts 222°
2026-05-04 17:48 54.26304 18.97047 5890 ft 180 kts 248°
2026-05-04 17:49 54.26020 18.95011 5664 ft 173 kts 266°
2026-05-04 17:49 54.26174 18.93014 5439 ft 168 kts 286°
2026-05-04 17:49 54.26611 18.91177 5310 ft 165 kts 289°
2026-05-04 17:49 54.27061 18.89414 5121 ft 163 kts 289°
2026-05-04 17:50 54.27515 18.87644 4937 ft 161 kts 289°
2026-05-04 17:50 54.27963 18.85892 4771 ft 160 kts 289°
2026-05-04 17:50 54.28407 18.84149 4576 ft 159 kts 289°
2026-05-04 17:50 54.28844 18.82419 4383 ft 157 kts 289°
2026-05-04 17:51 54.29275 18.80707 4199 ft 156 kts 289°
2026-05-04 17:51 54.29707 18.78979 4028 ft 161 kts 290°
2026-05-04 17:51 54.30150 18.77210 3847 ft 162 kts 290°
2026-05-04 17:51 54.30617 18.75489 3758 ft 155 kts 292°
2026-05-04 17:52 54.31073 18.73807 3557 ft 153 kts 291°
2026-05-04 17:52 54.31480 18.72201 3378 ft 143 kts 290°
2026-05-04 17:52 54.31871 18.70628 3202 ft 145 kts 290°
2026-05-04 17:52 54.32265 18.69021 2995 ft 147 kts 290°
2026-05-04 17:53 54.32663 18.67387 2778 ft 150 kts 290°
2026-05-04 17:53 54.33068 18.65740 2584 ft 151 kts 290°
2026-05-04 17:53 54.33472 18.64072 2396 ft 153 kts 290°
2026-05-04 17:53 54.33885 18.62401 2227 ft 147 kts 290°
2026-05-04 17:54 54.34273 18.60815 1990 ft 142 kts 290°
2026-05-04 17:54 54.34647 18.59272 1815 ft 139 kts 290°
2026-05-04 17:54 54.35015 18.57746 1665 ft 139 kts 289°
2026-05-04 17:54 54.35394 18.56198 1426 ft 142 kts 291°
2026-05-04 17:55 54.35783 18.54652 1212 ft 140 kts 291°
2026-05-04 17:55 54.36154 18.53139 1039 ft 135 kts 291°
2026-05-04 17:55 54.36517 18.51655 855 ft 134 kts 292°
2026-05-04 17:55 54.36884 18.50165 665 ft 137 kts 292°
2026-05-04 17:56 54.37249 18.48665 508 ft 136 kts 292°
2026-05-04 17:56 54.37587 18.47309 461 ft 100 kts 292°
2026-05-04 17:56 54.37783 18.46513 456 ft 57 kts 293°
2026-05-04 17:56 54.37895 18.46078 454 ft 30 kts 297°
2026-05-04 17:57 54.38007 18.45829 453 ft 22 kts 319°
2026-05-04 17:57 54.38102 18.45715 453 ft 13 kts 347°
2026-05-04 17:57 54.38133 18.45825 454 ft 13 kts 109°
2026-05-04 17:57 54.38105 18.45939 457 ft 8 kts 111°
2026-05-04 17:58 54.38099 18.46027 458 ft 8 kts 68°
2026-05-04 17:58 54.38138 18.46083 458 ft 7 kts 24°
2026-05-04 17:58 54.38173 18.46138 458 ft 7 kts 70°
2026-05-04 17:58 54.38165 18.46219 457 ft 6 kts 111°
2026-05-04 17:59 54.38155 18.46257 458 ft 2 kts 113°
2026-05-04 17:59 54.38150 18.46279 456 ft 2 kts 113°
2026-05-04 17:59 54.38136 18.46317 458 ft 2 kts 141°
2026-05-04 18:00 54.38114 18.46322 458 ft 5 kts 187°
2026-05-04 18:00 54.38096 18.46312 458 ft 3 kts 200°
2026-05-04 18:00 54.38082 18.46302 458 ft 0 kts 202°
2026-05-04 18:04 54.38115 18.46157 458 ft 0 kts 203°